Tracking 20712 objects as of 28-May-2020
HD Live streaming from Space Station
objects crossing your sky now

FENGYUN 1C DEB

Track FENGYUN 1C DEB now!
10-day predictions


NORAD ID: 41822
Int'l Code: 1999-025EXZ
Perigee: 814.0 km
Apogee: 905.6 km
Inclination: 98.9 °
Period: 102.0 minutes
Semi major axis: 7230 km
RCS: Unknown
Launch date: May 10, 1999
Source: People's Republic of China (PRC)
Launch site: Taiyaun Space Center, China (TSC)

Note: This is SATELLITE DEBRIS
aabbcc
Your satellite tracking list
Your tracking list is empty




NASA's NSSDC Master Catalog

Two Line Element Set (TLE):
1 41822U 99025EXZ 20148.63535594 +.00000585 +00000-0 +33792-3 0  9992
2 41822 098.8764 210.7358 0063338 240.0568 119.4304 14.11969570187118
Source of the keplerian elements: AFSPC